Location: Lynch Observatory
(39.9540°N, 75.1861°W)
Time: 10:59:54
(UTC-04:00)

DOVE 4 - Pass Details

Date: 02 May 2024
Orbit: 581 x 778 km, 97.7° (Epoch: 26 May)

Event Time Altitude Azimuth Distance (km) Brightness Sun altitude
Rises 22:26:03 0° 15° (NNE) 2,999 ? -24.0°
Reaches altitude 10° 22:28:15 10° 18° (NNE) 2,113 ? -24.3°
Enters shadow 22:32:23 62° 65° (ENE) 788 ? -24.8°
